Regional Weather Roundup
Issued by NWS Newport/Morehead, NC

Current Version | Previous Version | Graphics & Text | Print | Product List | Glossary Off
Versions: 1 2 3 4 5 6 7 8 9 10 11 12 13 14 15 16 17 18 19 20 21 22 23 24 25 26 27 28 29 30 31 32 33 34 35 36 37 38 39 40 41 42 43 44 45 46 47 48 49 50

412
ASUS42 KMHX 301325
RWRMHX
WEATHER ROUNDUP FOR EASTERN NORTH CAROLINA
NATIONAL WEATHER SERVICE NEWPORT/MOREHEAD CITY NC
900 AM EDT MON MAY 30 2016

NOTE: "FAIR" INDICATES FEW OR NO CLOUDS BELOW 12,000 FEET
WITH NO SIGNIFICANT WEATHER AND/OR OBSTRUCTIONS TO VISIBILITY

NCZ015>017-031-032-045>047-102-103-301400-
NORTH COAST

CITY           SKY/WX    TMP DP  RH WIND       PRES   REMARKS
EDENTON        LGT RAIN N/A N/A N/A SE5       30.03S
ELIZABETH CITY LGT RAIN  72  71  97 SE7       30.03R
KITTY HAWK     DRIZZLE   72  71  95 S3        30.03S
MANTEO         NOT AVBL

$$

NCZ045>047-081-094-103-104-301400-
CENTRAL COAST

CITY           SKY/WX    TMP DP  RH WIND       PRES   REMARKS
FRISCO         HVY RAIN  71  70  96 CALM      30.03S VSB 1

$$

NCZ095-097-098-100-101-301400-
SOUTHERN COAST

CITY           SKY/WX    TMP DP  RH WIND       PRES   REMARKS
BEAUFORT       CLOUDY    72  70  93 E6        30.01S
CEDAR ISLAND   NOT AVBL
JACKSONVILLE   CLOUDY    77  72  84 E8        29.98S
PINEY ISLAND   LGT RAIN N/A N/A N/A SW8       30.02R
WILMINGTON     PTSUNNY   79  70  74 SE13      29.96F


$$

NCZ011>013-027>030-043-044-078>080-089-090>093-098-301400-
COASTAL PLAIN

CITY           SKY/WX    TMP DP  RH WIND       PRES   REMARKS
AHOSKIE        LGT RAIN  73  72  95 CALM      30.02F
CLINTON        MOSUNNY   78  73  84 E3        29.98F
ELIZABETHTOWN  CLOUDY    77  73  86 E5        29.96F
GOLDSBORO      CLOUDY    76  76 100 E9        29.98S
GREENVILLE     CLOUDY    75  72  88 SE6       30.03R
HAVELOCK       CLOUDY    73  70  90 E8        30.01S
KENANSVILLE    MOSUNNY   74  73  95 CALM      30.00R
KINSTON        CLOUDY    75  72  88 E7        30.01S
NEW BERN       LGT RAIN  73  70  90 SE5       30.02R
RICHLANDS      CLOUDY    74  73  97 E7        29.99S
ROCKY MOUNT    CLOUDY    77  72  84 CALM      30.01S
WASHINGTON     DRIZZLE   73  71  95 SE5       30.01S
WHITEVILLE     CLOUDY    75  71  88 E3        29.95S

$$

AMZ130-135-150-152-154-156-158-170-250-252-270-ANZ085-086-088-633-658-670-301400-
MARINE OBSERVATIONS

STATION/POSITION TIME  TEMP    WIND        PRES    WAVE   SWELL
                       AIR SEA DIR/SP/G            HT/PER HT/PER
                 (UTC) (F)     (DEG/KT/KT) (MB)    (FT/S) (FT/S)
CHESAPEAKE LIGHT 1300   69     160/  8/  9 1017.8
64 E VA BEACH    1250   67 62  190/  8/  8 1017.5    5/ 8   5/ 8
DUCK             1300   65 58  130/  7/  8 1016.4
2 E DUCK         1211      62                N/A     3/ 6
OREGON INLET     1300   71 77  120/  6/  8 1017.1
13E OREGON INLT  1300      66                N/A     4/ 8   3/ 8
HATTERAS CG      1300   72 76  130/  5/  8 1016.6
DIAMOND BUOY     1250   77 80  160/ 23/ 29 1016.0    6/ 8   2/ 8
CAPE LOOKOUT     1300   73      90/  4/  4 1015.7
BEAUFORT LAB     1300   72 75  100/  4/  6 1015.3
30 SE NEW RVR IN 1225      75                N/A     6/ 8
27 SE WRIGHTSVLE 1308   78 75  190/  4/  8 1014.6
5 SE WRIGHTSVLE  1308   77 76  150/  4/  8 1015.4
225 S CAPE HAT   1250   74 75  130/ 12/ 12 1016.8    4/ 8   3/ 8
41 SE CHARLESTON 1250   73 77  250/ 14/ 17 1013.1    4/ 8   2/ 8

$$




USA.gov is the U.S. government's official web portal to all federal, state and local government web resources and services.